Weather in Buga

Colombia     3°54′37″N   76°18′18″W
temp.,
°C
wind,
m/s
gust,
m/s
humid.,
%
clouds,
%
prec.,
mm/h
press.,
hPa
HPBL,
m
13 april, tue
tue1301:00+17ese0188100 2.3 101216
04:00+17ene1188100 0.0 101120
07:00+18ne128947 0.1 101499
10:00+23nw017085 0.1 1013641
13:00+27ssw125278 0.4 10081209
16:00+27nw2156100 0.9 10061248
19:00+19n0191100 5.9 101029
22:00+18sse119196 1.6 101418
14 april, wed
wed1401:00+17se1193100 3.6 101319
04:00+16se119278 1.7 101233
07:00+17ne1189100 1.9 101573
10:00+22nne2276100 0.0 1015652
13:00+25nne116291 0.7 10101025
16:00+25w116299 1.2 10071054
19:00+19ssw1191100 5.4 101132
22:00+18se0193100 4.2 101419
15 april, thu
thu1501:00+17e1194100 7.5 101320
04:00+17sse119598 1.1 101214
07:00+17ne1193100 1.7 101475
10:00+22sw0176100 0.1 1014663
13:00
16:00+24nnw117283 2.2 1007813
19:00+18e1297100 15.1 1011128
22:00+18ssw229596 7.2 101474
16 april, fri
fri1601:00+17ssw1193100 8.3 101339
04:00+17ssw2397100 0.9 1013148
07:00+17ssw1196100 2.1 101487
10:00+21s018097 0.4 1014585
13:00+26n015847 0.4 10091214
16:00+22s0176100 1.3 1009326
19:00+18e119383 4.0 101226
22:00+18e119578 2.2 101431
17 april, sat
sat1701:00+17e119680 5.3 101441
04:00+17ene119796 1.2 101363
07:00+17nne1398100 4.4 1015156
10:00+18nne239477 0.7 1016305
13:00+23nne227066 1.1 1012839
16:00+21ene238296 1.8 1010323
19:00+18s0193100 5.0 101334
22:00+18n1191100 0.3 101518